TimeCDT,TemperatureF,Dew PointF,Humidity,Sea Level PressureIn,VisibilityMPH,Wind Direction,Wind SpeedMPH,Gust SpeedMPH,PrecipitationIn,Events,Conditions,WindDirDegrees,DateUTC
12:15 AM,71.6,71.6,100,29.70,7.0,WSW,4.6,-,0.05,Rain-Thunderstorm,Thunderstorms and Rain,240,2013-09-19 05:15:00
12:35 AM,69.8,69.8,100,29.68,10.0,Calm,Calm,-,0.10,Rain-Thunderstorm,Light Thunderstorms and Rain,0,2013-09-19 05:35:00
12:54 AM,69.8,69.8,100,29.65,10.0,SE,12.7,-,0.10,Rain,Light Rain,130,2013-09-19 05:54:00
1:15 AM,71.6,66.2,83,29.59,10.0,North,4.6,21.9,0.01,Rain,Light Rain,350,2013-09-19 06:15:00
1:35 AM,73.4,64.4,73,29.62,10.0,WNW,5.8,-,0.01,,Clear,300,2013-09-19 06:35:00
1:55 AM,69.8,66.2,88,29.62,10.0,Calm,Calm,-,0.01,,Clear,0,2013-09-19 06:55:00
2:14 AM,68.0,66.2,94,29.61,10.0,Calm,Calm,-,N/A,,Clear,0,2013-09-19 07:14:00
2:35 AM,66.2,66.2,100,29.61,10.0,Calm,Calm,-,N/A,,Clear,0,2013-09-19 07:35:00
2:55 AM,66.2,66.2,100,29.61,10.0,Calm,Calm,-,N/A,,Clear,0,2013-09-19 07:55:00
3:14 AM,66.2,66.2,100,29.60,10.0,Calm,Calm,-,N/A,,Clear,0,2013-09-19 08:14:00
3:35 AM,62.6,62.6,100,29.60,10.0,NW,8.1,-,N/A,,Clear,310,2013-09-19 08:35:00
3:54 AM,62.6,62.6,100,29.62,7.0,Calm,Calm,-,N/A,,Clear,0,2013-09-19 08:54:00
4:14 AM,62.6,62.6,100,29.61,7.0,Calm,Calm,-,N/A,,Clear,0,2013-09-19 09:14:00
4:35 AM,64.4,64.4,100,29.61,7.0,Calm,Calm,-,N/A,,Clear,0,2013-09-19 09:35:00
4:54 AM,62.6,62.6,100,29.61,7.0,Calm,Calm,-,N/A,,Clear,0,2013-09-19 09:54:00
5:14 AM,62.6,62.6,100,29.63,7.0,WSW,6.9,-,N/A,,Clear,240,2013-09-19 10:14:00
5:35 AM,62.6,62.6,100,29.65,5.0,Calm,Calm,-,N/A,,Clear,0,2013-09-19 10:35:00
5:54 AM,60.8,60.8,100,29.66,4.0,Calm,Calm,-,N/A,,Clear,0,2013-09-19 10:54:00
6:15 AM,62.6,62.6,100,29.66,5.0,SW,4.6,-,N/A,,Clear,220,2013-09-19 11:15:00
6:35 AM,62.6,62.6,100,29.66,4.0,Calm,Calm,-,N/A,,Clear,0,2013-09-19 11:35:00
6:54 AM,62.6,62.6,100,29.66,5.0,Calm,Calm,-,N/A,,Clear,0,2013-09-19 11:54:00
7:15 AM,62.6,62.6,100,29.66,5.0,Calm,Calm,-,N/A,,Clear,0,2013-09-19 12:15:00
7:35 AM,62.6,62.6,100,29.69,5.0,SSW,3.5,-,N/A,,Clear,200,2013-09-19 12:35:00
7:54 AM,62.6,62.6,100,29.69,4.0,Calm,Calm,-,N/A,,Clear,0,2013-09-19 12:54:00
8:15 AM,62.6,62.6,100,29.68,4.0,Calm,Calm,-,N/A,,Clear,0,2013-09-19 13:15:00
8:35 AM,62.6,62.6,100,29.70,4.0,West,3.5,-,N/A,,Clear,280,2013-09-19 13:35:00
8:54 AM,64.4,64.4,100,29.70,7.0,NW,6.9,-,N/A,,Scattered Clouds,320,2013-09-19 13:54:00
9:15 AM,64.4,64.4,100,29.71,7.0,NW,8.1,-,N/A,,Scattered Clouds,310,2013-09-19 14:15:00
9:35 AM,64.4,64.4,100,29.72,7.0,WNW,9.2,-,N/A,,Mostly Cloudy,300,2013-09-19 14:35:00
9:54 AM,64.4,64.4,100,29.74,7.0,NW,13.8,21.9,N/A,,Overcast,310,2013-09-19 14:54:00
10:15 AM,64.4,64.4,100,29.75,10.0,NW,13.8,-,0.01,,Mostly Cloudy,320,2013-09-19 15:15:00
10:35 AM,64.4,62.6,94,29.76,10.0,NNW,11.5,-,0.01,,Clear,330,2013-09-19 15:35:00
10:54 AM,64.4,64.4,100,29.76,10.0,NW,13.8,-,0.01,,Clear,320,2013-09-19 15:54:00
11:15 AM,64.4,64.4,100,29.75,10.0,NNW,11.5,18.4,N/A,,Scattered Clouds,330,2013-09-19 16:15:00
11:34 AM,66.2,62.6,88,29.76,10.0,NNW,15.0,19.6,N/A,,Scattered Clouds,330,2013-09-19 16:34:00
11:54 AM,66.2,62.6,88,29.76,10.0,NW,12.7,16.1,N/A,,Clear,310,2013-09-19 16:54:00
12:15 PM,68.0,62.6,83,29.77,10.0,NW,10.4,-,N/A,,Scattered Clouds,320,2013-09-19 17:15:00
12:34 PM,69.8,62.6,78,29.78,10.0,NW,12.7,17.3,N/A,,Clear,320,2013-09-19 17:34:00
12:54 PM,69.8,60.8,73,29.78,10.0,NW,13.8,18.4,N/A,,Scattered Clouds,320,2013-09-19 17:54:00
1:15 PM,69.8,60.8,73,29.78,10.0,NW,11.5,-,N/A,,Clear,320,2013-09-19 18:15:00
1:34 PM,71.6,60.8,69,29.78,10.0,NNW,9.2,-,N/A,,Clear,330,2013-09-19 18:34:00
1:55 PM,71.6,57.2,60,29.78,10.0,NW,15.0,20.7,N/A,,Clear,310,2013-09-19 18:55:00
2:15 PM,71.6,57.2,60,29.78,10.0,NW,11.5,17.3,N/A,,Clear,310,2013-09-19 19:15:00
2:34 PM,71.6,57.2,60,29.78,10.0,NW,11.5,-,N/A,,Clear,320,2013-09-19 19:34:00
2:55 PM,71.6,57.2,60,29.78,10.0,NW,10.4,-,N/A,,Scattered Clouds,310,2013-09-19 19:55:00
3:15 PM,73.4,55.4,53,29.77,10.0,WNW,8.1,-,N/A,,Scattered Clouds,300,2013-09-19 20:15:00
3:34 PM,73.4,53.6,50,29.77,10.0,NW,10.4,-,N/A,,Clear,320,2013-09-19 20:34:00
3:55 PM,73.4,53.6,50,29.77,10.0,WNW,13.8,18.4,N/A,,Scattered Clouds,290,2013-09-19 20:55:00
4:14 PM,73.4,51.8,47,29.77,10.0,WNW,15.0,19.6,N/A,,Scattered Clouds,290,2013-09-19 21:14:00
4:35 PM,73.4,51.8,47,29.77,10.0,WNW,12.7,20.7,N/A,,Scattered Clouds,300,2013-09-19 21:35:00
4:55 PM,73.4,50.0,44,29.78,10.0,WNW,13.8,-,N/A,,Scattered Clouds,290,2013-09-19 21:55:00
5:14 PM,71.6,50.0,46,29.78,10.0,WNW,17.3,-,N/A,,Clear,290,2013-09-19 22:14:00
5:35 PM,71.6,51.8,50,29.78,10.0,WNW,15.0,19.6,N/A,,Clear,300,2013-09-19 22:35:00
5:55 PM,71.6,51.8,50,29.79,10.0,WNW,13.8,21.9,N/A,,Clear,290,2013-09-19 22:55:00
6:14 PM,69.8,51.8,53,29.78,10.0,WNW,15.0,20.7,N/A,,Clear,300,2013-09-19 23:14:00
6:35 PM,68.0,51.8,56,29.80,10.0,WNW,16.1,23.0,N/A,,Clear,290,2013-09-19 23:35:00
6:55 PM,66.2,51.8,60,29.80,10.0,WNW,16.1,21.9,N/A,,Clear,290,2013-09-19 23:55:00
7:14 PM,64.4,53.6,68,29.81,10.0,WNW,17.3,20.7,N/A,,Scattered Clouds,300,2013-09-20 00:14:00
7:35 PM,64.4,55.4,73,29.82,10.0,WNW,15.0,19.6,N/A,,Scattered Clouds,290,2013-09-20 00:35:00
7:55 PM,62.6,55.4,77,29.82,10.0,WNW,10.4,19.6,N/A,,Overcast,300,2013-09-20 00:55:00
8:14 PM,62.6,55.4,77,29.84,10.0,WNW,10.4,18.4,N/A,,Overcast,300,2013-09-20 01:14:00
8:35 PM,62.6,55.4,77,29.84,10.0,WNW,12.7,-,N/A,,Mostly Cloudy,300,2013-09-20 01:35:00
8:55 PM,62.6,55.4,77,29.85,10.0,WNW,12.7,17.3,N/A,,Mostly Cloudy,290,2013-09-20 01:55:00
9:14 PM,62.6,55.4,77,29.85,10.0,WNW,9.2,-,N/A,,Mostly Cloudy,290,2013-09-20 02:14:00
9:35 PM,62.6,55.4,77,29.84,10.0,West,9.2,-,N/A,,Mostly Cloudy,270,2013-09-20 02:35:00
9:54 PM,60.8,55.4,82,29.84,10.0,West,12.7,16.1,N/A,,Overcast,270,2013-09-20 02:54:00
10:15 PM,60.8,57.2,88,29.84,10.0,West,12.7,-,N/A,,Overcast,280,2013-09-20 03:15:00
10:35 PM,60.8,57.2,88,29.84,10.0,WNW,10.4,-,N/A,,Overcast,290,2013-09-20 03:35:00
10:54 PM,59.0,59.0,100,29.84,10.0,WNW,4.6,-,N/A,Rain,Light Rain,290,2013-09-20 03:54:00
11:15 PM,59.0,59.0,100,29.84,10.0,WNW,10.4,-,N/A,,Overcast,300,2013-09-20 04:15:00
11:34 PM,57.2,57.2,100,29.86,10.0,North,12.7,17.3,N/A,,Overcast,360,2013-09-20 04:34:00
11:54 PM,57.2,57.2,100,29.86,10.0,North,12.7,-,N/A,,Overcast,350,2013-09-20 04:54:00